KUIPER-00300

导读

KUIPER-00300(NORAD编号68597)是亚马逊“柯伊伯计划”(Project Kuiper)低轨宽带卫星星座中的一颗卫星,该星座计划通过数千颗低轨卫星实现全球高速互联网覆盖。 它于2025年6月23日由联合发射联盟(ULA)的阿特拉斯V火箭在美国佛罗里达州卡纳维拉尔角发射升空,属于该项目第二次批量发射任务中的卫星。目前该卫星运行在近地轨道,是柯伊伯星座部署过程中的重要组成部分,将为后续2026年中期在澳大利亚启动商用服务、验证星座组网和通信技术性能提供支撑。

基本信息
目录编号:
68597
目录名称:
KUIPER-00300
国际标识:
2026-072AA
轨道中心:
EARTH
卫星名称:
KUIPER-00300
卫星全名:
KUIPER-00300
卫星状态:
在轨 (已飞行164 天)
发射日期:
2026-04-04 UTC
国别 :
美国 (US)
星等 :
--
该卫星已列入 空间交会检测服务 Space Conjunction Data Service (SCDS) ,当前飞行风险评估等级: 无高风险
轨道信息
数据来源 国际轨道数据 AOE轨道数据
星历时间 2026-09-15T10:00:54+0800
21小时前
查看轨道信息
2026-09-16T00:00:00+0800
7小时前
查看轨道信息
半长轴 7007.668km 7007.662km
偏心率 0.0000828 0.0000925
轨道倾角 51.902° 51.901°
近地点辐角 107.513° 80.430°
升交点赤经 148.137° 145.562°
平近点角 252.593° 146.077°
近地点 628.95km 628.876km
远地点 630.112km 630.174km
周期 97.302分钟 97.301分钟
每日圈数 14.799346 14.799364
详细信息
使用方式:
暂无
2D轨道图
3D轨道图
轨道高度分析图
轨道倾角分析图
轨道综合分析图
查看轨道综合分析图
与全量物体交会距离演化趋势 订阅飞行安全评估服务
与全量物体交会风险概率演化趋势 订阅飞行安全评估服务